Date String (YYYY-MM-DD hh:mm:ss) UTC,Instrument flags,absolute air pressure of the measurement (hPa),sample flow rate (lpm),inlet stack bypass flow (lpm),air temperature of the measurement (°C),ambient temperature measured by the external sensor (°C),aerosol sample conditioner tube jacket temperature (°C),OPC LED temperature (°C),internal box temperature (°C),relative humidity of the measurement (%),span deviation,mass concentration of particles derived from Lorenz-Mie calculation of OPC scattering (μg/m³),mass concentration of particles derived from Lorenz-Mie calculation of OPC scattering (μg/m³),mass concentration of particles derived from Lorenz-Mie calculation of OPC scattering (μg/m³)
DateTimeUTC,F1_M11,P_M11,Q1_M11,Q2_M11,T1_M11,T2_M11,T3_M11,T4_M11,T5_M11,U1_M11,ZSPAN_M11,X0_M11,X2_M11,X1_M11
2023-06-05 01:00:00,SystemResetWarning,0834.1,5.00,000.00,029.9,026.8,000.0,038.4,031.3,32.0,0000.0,0005.79,0002.89,0002.36
2023-06-05 01:01:00,SystemResetWarning,0834.0,5.00,000.00,029.9,027.1,000.0,038.4,031.3,32.0,0000.0,0005.67,0002.93,0002.38
2023-06-05 01:02:00,SystemResetWarning,0834.0,5.00,000.00,029.9,027.3,000.0,038.4,031.4,31.9,0000.0,0004.97,0002.91,0002.39
2023-06-05 01:03:00,SystemResetWarning,0834.1,5.00,000.00,029.9,027.6,000.0,038.4,031.4,31.8,0000.0,0004.78,0002.89,0002.39
2023-06-05 01:04:00,SystemResetWarning,0834.0,4.99,000.00,029.9,027.7,000.0,038.3,031.4,31.8,0000.0,0004.28,0002.87,0002.40
2023-06-05 01:05:00,SystemResetWarning,0834.1,4.99,000.00,029.9,027.9,000.0,038.3,031.4,31.8,0000.0,0003.74,0002.84,0002.41
2023-06-05 01:06:00,SystemResetWarning,0834.1,5.00,000.00,029.9,028.0,000.0,038.3,031.5,31.8,0000.0,0003.50,0002.76,0002.42
2023-06-05 01:07:00,SystemResetWarning,0834.1,5.01,000.00,029.9,028.1,000.0,038.3,031.5,31.9,0000.0,0003.48,0002.75,0002.41
2023-06-05 01:08:00,SystemResetWarning,0834.1,5.00,000.00,029.9,028.2,000.0,038.3,031.5,31.8,0000.0,0003.49,0002.75,0002.41
2023-06-05 01:09:00,SystemResetWarning,0834.1,5.00,000.00,029.9,028.2,000.0,038.3,031.5,31.7,0000.0,0003.66,0002.79,0002.42
2023-06-05 01:10:00,SystemResetWarning,0834.1,5.00,000.00,029.9,028.3,000.0,038.3,031.5,31.5,0000.0,0005.25,0002.81,0002.42
2023-06-05 01:11:00,SystemResetWarning,0834.1,5.00,000.00,030.0,028.4,000.0,038.3,031.6,31.6,0000.0,0005.09,0002.78,0002.40
2023-06-05 01:12:00,SystemResetWarning,0834.1,5.00,000.00,030.0,028.4,000.0,038.3,031.6,31.8,0000.0,0005.10,0002.76,0002.39
2023-06-05 01:13:00,SystemResetWarning,0834.2,5.01,000.00,030.0,028.4,000.0,038.3,031.6,32.1,0000.0,0005.17,0002.76,0002.37
2023-06-05 01:14:00,SystemResetWarning,0834.2,5.00,000.00,030.0,028.5,000.0,038.3,031.6,32.2,0000.0,0005.37,0002.83,0002.39
2023-06-05 01:15:00,SystemResetWarning,0834.2,5.01,000.00,030.0,028.5,000.0,038.3,031.6,32.2,0000.0,0005.41,0002.88,0002.41
2023-06-05 01:16:00,SystemResetWarning,0834.3,4.99,000.00,030.0,028.5,000.0,038.3,031.6,32.2,0000.0,0005.66,0002.95,0002.42
2023-06-05 01:17:00,SystemResetWarning,0834.2,5.00,000.00,030.0,028.5,000.0,038.3,031.6,32.4,0000.0,0006.46,0003.04,0002.44
2023-06-05 01:18:00,SystemResetWarning,0834.5,5.00,000.00,030.0,028.5,000.0,038.4,031.6,32.5,0000.0,0006.51,0003.08,0002.48
2023-06-05 01:19:00,SystemResetWarning,0834.3,5.01,000.00,030.0,028.5,000.0,038.4,031.6,32.5,0000.0,0006.57,0003.12,0002.53
2023-06-05 01:20:00,SystemResetWarning,0834.3,5.01,000.00,030.0,028.5,000.0,038.4,031.6,32.6,0000.0,0006.65,0003.14,0002.55
2023-06-05 01:21:00,SystemResetWarning,0834.3,4.99,000.00,030.0,028.4,000.0,038.4,031.6,32.7,0000.0,0005.10,0003.16,0002.59
2023-06-05 01:22:00,SystemResetWarning,0834.3,4.99,000.00,030.0,028.4,000.0,038.4,031.6,32.8,0000.0,0005.17,0003.20,0002.64
2023-06-05 01:23:00,SystemResetWarning,0834.4,5.01,000.00,030.0,028.4,000.0,038.4,031.6,32.7,0000.0,0005.23,0003.23,0002.69
2023-06-05 01:24:00,SystemResetWarning,0834.4,5.01,000.00,030.0,028.4,000.0,038.4,031.6,32.8,0000.0,0005.20,0003.24,0002.73
2023-06-05 01:25:00,SystemResetWarning,0834.4,5.00,000.00,030.0,028.4,000.0,038.4,031.6,32.9,0000.0,0005.31,0003.25,0002.75
2023-06-05 01:26:00,SystemResetWarning,0834.4,4.99,000.00,030.0,028.4,000.0,038.4,031.6,32.8,0000.0,0005.32,0003.24,0002.77
2023-06-05 01:27:00,SystemResetWarning,0834.5,5.00,000.00,030.0,028.4,000.0,038.4,031.6,32.9,0000.0,0005.28,0003.23,0002.79
2023-06-05 01:28:00,SystemResetWarning,0834.5,5.00,000.00,030.0,028.4,000.0,038.4,031.6,32.8,0000.0,0004.75,0003.21,0002.81
2023-06-05 01:29:00,SystemResetWarning,0834.5,4.99,000.00,030.0,028.4,000.0,038.4,031.6,32.7,0000.0,0004.67,0003.21,0002.82
2023-06-05 01:30:00,SystemResetWarning,0834.5,5.00,000.00,030.0,028.4,000.0,038.4,031.6,32.8,0000.0,0004.81,0003.22,0002.82
2023-06-05 01:31:00,SystemResetWarning,0834.5,5.00,000.00,030.0,028.4,000.0,038.4,031.6,32.8,0000.0,0004.78,0003.21,0002.84
2023-06-05 01:32:00,SystemResetWarning,0834.5,5.00,000.00,030.0,028.4,000.0,038.4,031.6,32.9,0000.0,0004.71,0003.20,0002.86
2023-06-05 01:33:00,SystemResetWarning,0834.5,5.00,000.00,030.0,028.4,000.0,038.4,031.6,33.0,0000.0,0004.72,0003.19,0002.85
2023-06-05 01:34:00,SystemResetWarning,0834.6,5.01,000.00,030.0,028.4,000.0,038.4,031.6,33.0,0000.0,0004.85,0003.20,0002.86
2023-06-05 01:35:00,SystemResetWarning,0834.6,5.00,000.00,030.0,028.5,000.0,038.4,031.6,33.0,0000.0,0004.94,0003.21,0002.85
2023-06-05 01:36:00,SystemResetWarning,0834.9,5.00,000.00,030.0,028.5,000.0,038.4,031.6,32.9,0000.0,0004.71,0003.19,0002.85
2023-06-05 01:37:00,SystemResetWarning,0835.0,5.01,000.00,030.0,028.5,000.0,038.4,031.6,32.8,0000.0,0004.64,0003.18,0002.86
2023-06-05 01:38:00,SystemResetWarning,0834.9,5.00,000.00,030.0,028.5,000.0,038.4,031.6,32.9,0000.0,0004.69,0003.19,0002.87
2023-06-05 01:39:00,SystemResetWarning,0835.0,4.99,000.00,030.0,028.5,000.0,038.4,031.6,32.9,0000.0,0004.54,0003.19,0002.87
2023-06-05 01:40:00,SystemResetWarning,0835.0,5.00,000.00,030.0,028.5,000.0,038.4,031.6,32.9,0000.0,0004.93,0003.23,0002.87
2023-06-05 01:41:00,SystemResetWarning,0835.0,5.00,000.00,030.0,028.5,000.0,038.4,031.6,33.0,0000.0,0004.74,0003.21,0002.88
2023-06-05 01:42:00,SystemResetWarning,0835.0,5.00,000.00,030.0,028.5,000.0,038.4,031.6,33.0,0000.0,0004.83,0003.21,0002.89
2023-06-05 01:43:00,SystemResetWarning,0835.0,5.00,000.00,030.0,028.5,000.0,038.4,031.6,33.0,0000.0,0004.87,0003.22,0002.90
2023-06-05 01:44:00,SystemResetWarning,0835.1,5.00,000.00,030.0,028.5,000.0,038.4,031.7,32.9,0000.0,0004.96,0003.25,0002.92
2023-06-05 01:45:00,SystemResetWarning,0835.1,5.00,000.00,030.0,028.5,000.0,038.4,031.6,32.9,0000.0,0005.05,0003.27,0002.94
2023-06-05 01:46:00,SystemResetWarning,0835.1,5.00,000.00,030.0,028.5,000.0,038.4,031.6,32.9,0000.0,0005.00,0003.29,0002.98
2023-06-05 01:47:00,SystemResetWarning,0835.0,5.00,000.00,030.0,028.5,000.0,038.4,031.6,32.9,0000.0,0005.14,0003.32,0003.02
2023-06-05 01:48:00,SystemResetWarning,0834.9,4.99,000.00,030.0,028.5,000.0,038.4,031.6,32.9,0000.0,0005.27,0003.34,0003.05
2023-06-05 01:49:00,SystemResetWarning,0834.5,5.00,000.00,030.0,028.5,000.0,038.4,031.6,33.0,0000.0,0005.36,0003.37,0003.08
2023-06-05 01:50:00,SystemResetWarning,0834.5,5.00,000.00,030.0,028.5,000.0,038.4,031.6,33.0,0000.0,0005.57,0003.40,0003.11
2023-06-05 01:51:00,SystemResetWarning,0834.5,5.00,000.00,030.0,028.5,000.0,038.4,031.6,33.1,0000.0,0005.27,0003.39,0003.12
2023-06-05 01:52:00,SystemResetWarning,0834.5,4.99,000.00,030.0,028.5,000.0,038.4,031.6,33.0,0000.0,0005.29,0003.40,0003.13
2023-06-05 01:53:00,SystemResetWarning,0834.5,4.99,000.00,030.0,028.4,000.0,038.4,031.6,33.0,0000.0,0005.18,0003.40,0003.13
2023-06-05 01:54:00,SystemResetWarning,0834.5,5.00,000.00,030.0,028.4,000.0,038.4,031.6,33.0,0000.0,0005.18,0003.41,0003.13
2023-06-05 01:55:00,SystemResetWarning,0834.5,5.00,000.00,030.0,028.4,000.0,038.4,031.6,33.1,0000.0,0005.09,0003.40,0003.13
2023-06-05 01:56:00,SystemResetWarning,0834.5,5.01,000.00,030.0,028.4,000.0,038.4,031.5,33.0,0000.0,0004.82,0003.37,0003.11
2023-06-05 01:57:00,SystemResetWarning,0834.9,5.01,000.00,030.0,028.4,000.0,038.4,031.5,33.0,0000.0,0004.80,0003.35,0003.10
2023-06-05 01:58:00,SystemResetWarning,0835.1,5.00,000.00,030.0,028.4,000.0,038.4,031.5,33.1,0000.0,0004.70,0003.34,0003.08
2023-06-05 01:59:00,SystemResetWarning,0835.1,5.00,000.00,030.0,028.4,000.0,038.4,031.6,33.0,0000.0,0004.62,0003.33,0003.06
